Regional Weather Roundup
Issued by NWS State College, PA

Home | Current Version | Previous Version | Graphics & Text | Print | Product List | Glossary Off
Versions: 1 2 3 4 5 6 7 8 9 10 11 12 13 14 15 16 17 18 19 20 21 22 23 24 25 26 27 28 29 30 31 32 33 34 35 36 37 38 39 40 41 42 43 44 45 46 47 48 49 50

000
ASUS41 KCTP 231903
RWRCTP

REGIONAL WEATHER ROUNDUP
NATIONAL WEATHER SERVICE STATE COLLEGE PA
200 PM EST SUN NOV 23 2014

Note: "fair" indicates few or no clouds below 12,000 feet with no
significant weather and/or obstructions to visibility.

* = STATION THAT DOES NOT REPORT PRECIPITATION /E.G. RAIN...SNOW...ETC/
    THUNDER OR FOG.

PAZ002>004-007>009-013>016-020>023-029>032-232000-
WESTERN PENNSYLVANIA

CITY           SKY/WX    TMP DP  RH WIND       PRES   REMARKS
ERIE           PTSUNNY   54  38  54 S12       29.91F
MEADVILLE      PTSUNNY   54  39  57 CALM      29.93F
FRANKLIN*      PTSUNNY   55  39  54 SE8       29.96F
NEW CASTLE       N/A     59  41  51 CALM      29.94F
BEAVER COUNTY  SUNNY     61  41  48 SE8       29.93F
BUTLER*        CLOUDY    59  45  58 E8        29.98F
PITTSBURGH INT CLOUDY    63  44  50 SE8       29.93F
PITTSBURGH     PTSUNNY   63  43  48 SE10      29.94F
INDIANA*       SUNNY     61  41  48 S10       30.02F
LATROBE        NOT AVBL
WASHINGTON CO* CLOUDY    64  46  52 SE8       29.94F
$$

PAZ004>006-010>012-017>019-024>028-033>037-041-042-045-046-049>053-232000-
CENTRAL PENNSYLVANIA

CITY           SKY/WX    TMP DP  RH WIND       PRES   REMARKS
BRADFORD       PTSUNNY   50  33  52 S9        29.99F
DUBOIS         MOSUNNY   58  39  49 SE7       29.98F
CLEARFIELD     MOSUNNY   58  36  43 VRB6      30.01F
JOHNSTOWN      MOSUNNY   57  38  48 S16       30.01F
ALTOONA        SUNNY     59  39  47 S10       30.03F
STATE COLLEGE  MOSUNNY   55  32  41 CALM      30.03F
WILLIAMSPORT   PTSUNNY   50  26  39 SE5       30.08F
SELINSGROVE    MOSUNNY   57  24  28 S6        30.08F
FT INDIANTOWN  MOSUNNY   54  24  31 VRB2      30.10F
CAPITAL CITY   MOSUNNY   55  26  32 E7        30.10F
HARRISBURG     PTSUNNY   54  27  35 SE8       30.09F
YORK           MOSUNNY   59  25  27 SE9       30.08F
$$

PAZ038>040-043-044-047-048-054-055-060>062-067>071-232000-
EASTERN PENNSYLVANIA

CITY           SKY/WX    TMP DP  RH WIND       PRES   REMARKS
SCRANTON       PTSUNNY   53  22  29 MISG      30.08F
MOUNT POCONO   MOSUNNY   56  25  30 SE8       30.08S
ALLENTOWN      SUNNY     57  22  25 CALM      30.12F
QUAKERTOWN*    CLEAR     55  27  33 S7        30.13F
READING        SUNNY     60  22  23 S3        30.10F
LANCASTER      MOSUNNY   54  25  32 SE10      30.10F
COATESVILLE    CLEAR     52  25  35 SE3       30.13F
POTTSTOWN      SUNNY     57  24  28 VRB6      30.13F
BLUE BELL      SUNNY     57  28  33 S7        30.13F
DOYLESTOWN     SUNNY     55  25  31 S6        30.12F
WILLOW GROVE   NOT AVBL
NORTH PHILA    SUNNY     56  22  26 S10       30.16F
PHILADELPHIA   PTSUNNY   53  26  35 S7        30.15F
$$


USA.gov is the U.S. government's official web portal to all federal, state and local government web resources and services.